Theta_e
329 329 329 328 328 328 328 327 327 326 326 326 326 326 326 326 325 325 325 324 324 324 324 324 324 324 323 323 323 323 322 322 322 322 321 321 321 321 321 321 321 321
329 329 329 328 328 328 328 327 327 327 326 326 326 326 326 326 325 325 325 325 324 324 324 324 324 324 323 323 323 323 323 322 322 322 322 322 322 322 321 321 321 321
329 329 329 329 328 328 328 328 327 327 327 326 326 326 326 326 326 326 325 325 325 324 324 324 324 324 324 324 323 323 323 323 323 322 322 322 322 322 322 321 322 321
329 329 329 329 328 328 328 328 327 327 327 327 327 326 326 326 326 326 326 325 325 325 324 324 324 324 324 324 323 323 323 323 323 323 322 323 322 322 322 322 322 322
328 329 329 329 329 328 328 328 327 327 327 327 327 327 326 326 326 326 326 325 325 325 325 324 324 324 324 324 324 323 323 323 323 323 323 323 323 323 323 322 322 322
328 328 328 328 328 328 328 327 327 327 327 327 327 327 326 326 326 326 326 325 325 325 325 325 324 324 324 324 324 323 323 323 323 323 323 323 323 323 323 323 322 322
327 328 328 328 328 328 328 328 327 327 327 327 327 327 326 326 326 325 326 326 325 325 325 325 324 324 324 324 323 323 323 323 323 323 323 323 323 323 323 323 322 322
326 327 328 328 328 328 328 328 328 328 327 327 327 327 326 326 326 326 326 325 325 325 325 325 325 324 324 324 323 323 323 323 323 323 323 323 323 323 322 323 322 322
326 326 327 327 328 328 328 328 328 328 328 327 327 327 326 326 326 326 326 325 325 325 325 325 325 324 324 324 323 324 323 323 323 323 323 322 322 322 322 322 322 322
325 326 326 327 327 328 328 328 328 328 328 327 327 327 326 326 326 326 326 325 325 325 325 325 325 324 324 324 323 324 323 323 323 323 323 322 322 322 322 322 322 322
322 324 325 326 327 327 328 328 328 328 328 327 327 327 327 326 326 326 326 326 325 325 325 325 325 325 324 324 324 324 323 323 323 323 323 323 323 322 322 322 322 322
320 321 322 323 325 326 327 327 328 328 328 328 327 327 327 326 326 326 326 326 326 326 325 326 325 325 325 324 324 324 324 323 323 323 323 323 323 323 322 322 322 322
318 318 319 320 321 322 324 325 326 327 327 328 328 327 327 327 326 326 326 326 326 326 326 326 325 325 325 325 325 324 324 323 323 323 323 323 322 322 322 322 322 322
316 316 317 317 318 319 321 323 324 326 326 327 327 327 327 327 327 326 326 326 326 326 326 326 326 325 325 325 325 324 323 323 323 323 323 322 322 322 322 322 322 322
312 313 313 315 316 316 318 320 322 324 326 326 327 327 327 327 327 327 326 326 326 326 326 326 326 325 325 325 325 324 324 323 323 323 323 322 322 322 322 322 322 322
310 310 311 312 313 315 317 319 321 323 324 325 326 326 327 327 327 326 326 326 326 326 326 326 325 326 326 326 325 325 324 324 323 323 323 322 322 322 322 322 322 322
310 311 312 312 313 315 316 318 320 322 323 324 325 326 326 326 326 326 326 326 325 325 325 325 325 326 326 326 325 325 325 324 323 323 323 322 322 322 322 322 322 322
311 312 313 314 315 316 317 318 320 321 322 323 324 325 325 325 325 325 325 325 325 325 325 325 325 326 326 326 325 325 325 324 324 323 323 322 322 322 322 322 322 322
312 313 314 315 316 317 317 318 319 320 321 322 323 323 323 324 324 324 324 324 324 324 324 325 325 325 325 325 325 325 324 324 324 323 323 322 322 322 322 322 322 322
312 313 314 315 316 317 318 318 319 320 320 321 322 322 323 323 323 323 324 323 323 324 324 324 325 325 324 324 324 324 324 323 323 323 323 323 323 323 322 322 322 322
309 310 312 313 314 315 316 317 318 319 320 320 321 321 321 322 322 322 322 322 322 323 323 323 324 323 323 323 323 323 323 322 322 322 322 322 322 322 322 321 321 321
307 307 308 309 310 311 312 314 315 317 318 319 319 319 318 318 319 319 319 320 321 321 321 322 322 322 321 321 321 321 321 320 320 320 320 319 319 319 319 319 319 319
307 307 307 307 308 308 309 310 312 313 314 315 316 316 315 315 316 317 317 317 318 318 319 319 320 319 319 319 319 319 318 318 317 317 317 317 316 316 316 316 317 317
306 307 307 307 307 308 308 308 308 309 309 310 311 311 312 313 313 314 314 314 314 314 314 314 315 314 314 314 314 314 313 313 313 312 312 312 313 313 313 313 313 314
303 305 306 307 307 307 307 307 307 307 307 307 307 308 308 308 309 309 309 309 309 309 308 308 308 308 307 306 307 307 306 305 306 306 307 307 308 308 308 309 309 310
300 301 303 304 305 305 305 305 305 305 305 305 305 305 305 305 305 305 305 305 305 305 305 304 304 304 304 303 303 303 303 302 301 301 302 303 304 304 305 305 306 306
Wind_Speed
49 48 48 47 46 46 45 43 42 40 40 40 41 43 45 46 45 43 44 47 48 48 49 48 47 47 46 45 43 42 43 42 43 42 41 41 42 41 41 41 40 38
49 49 49 47 46 46 45 45 43 41 41 42 43 44 44 44 42 41 43 45 46 47 48 47 46 46 45 44 43 42 42 42 43 42 40 42 42 40 41 41 40 40
49 50 49 48 47 47 46 45 43 41 42 43 44 44 44 43 41 41 42 43 44 46 46 45 45 45 44 44 42 42 43 43 43 42 40 42 41 40 41 40 39 40
50 50 50 50 50 49 47 43 41 42 42 43 45 45 44 42 40 40 41 42 43 44 45 44 45 44 44 44 42 42 44 44 44 41 39 41 41 40 40 38 38 39
49 50 49 49 49 48 45 42 41 42 43 45 46 44 43 41 39 40 40 41 42 44 43 43 44 45 44 43 43 43 43 43 43 40 39 41 41 39 39 37 37 39
46 46 47 47 47 46 44 43 44 44 45 46 45 43 41 40 40 40 41 41 42 43 43 43 43 44 44 43 42 43 43 42 41 39 39 42 41 38 38 37 37 38
44 44 45 45 45 43 43 43 44 45 45 45 43 41 40 39 40 41 41 41 41 41 42 43 43 43 43 42 41 42 43 42 40 38 39 41 39 37 37 37 37 38
43 42 42 42 42 42 42 43 44 44 44 42 40 40 39 39 40 40 40 40 39 40 41 42 42 42 41 40 41 42 42 41 40 38 39 40 38 37 38 37 36 38
39 40 39 38 39 40 42 43 43 43 42 40 40 40 38 39 40 40 38 38 38 39 40 41 41 41 40 40 41 42 42 41 40 39 39 40 39 39 39 37 35 37
36 37 37 37 38 39 40 42 42 41 39 38 39 38 37 38 39 39 37 37 38 39 40 40 40 40 40 40 42 42 42 41 40 40 40 40 41 41 39 37 36 37
34 35 36 37 38 39 39 40 39 39 39 38 38 38 38 39 39 38 38 37 38 39 39 39 40 40 40 40 42 42 42 42 41 40 41 41 42 42 40 39 38 39
33 34 35 36 37 37 38 38 38 38 38 38 39 39 38 38 38 38 38 38 39 39 39 40 40 40 41 41 42 42 42 42 41 40 41 41 42 41 41 40 39 39
30 31 32 33 34 35 35 36 36 36 37 38 39 38 37 37 37 37 38 39 40 40 40 40 40 40 41 41 42 41 41 40 40 40 40 40 41 41 40 39 38 39
27 27 28 29 30 31 32 32 33 34 35 36 36 35 36 37 37 37 38 38 39 40 40 40 39 39 40 41 41 40 39 39 39 39 39 38 38 38 38 37 38 38
23 23 24 25 26 27 28 29 30 31 33 33 33 34 35 36 37 37 37 37 38 39 39 38 38 39 40 40 40 39 38 38 38 38 37 36 36 36 36 37 37 38
18 19 20 22 23 25 26 27 28 29 30 31 32 33 33 34 34 35 35 36 36 37 37 37 37 39 40 40 40 39 38 37 37 37 36 35 35 35 35 36 37 38
15 15 16 17 19 21 23 24 25 26 27 28 29 30 31 31 32 33 34 35 35 35 35 36 37 39 39 39 38 38 37 36 35 35 35 34 35 35 35 36 36 37
13 12 13 15 16 18 20 21 22 23 25 26 27 28 29 29 30 31 32 32 32 33 34 35 36 37 37 36 36 36 36 36 35 34 33 33 34 35 36 36 35 36
12 12 12 14 15 16 18 18 19 22 23 24 25 25 25 26 27 28 29 29 29 30 32 33 34 34 34 33 33 33 33 33 34 33 33 32 32 33 34 34 35 35
12 13 14 15 15 16 16 17 18 19 21 22 22 23 23 24 25 26 26 27 27 28 30 31 32 32 30 29 30 30 30 30 31 32 33 33 34 33 33 34 35 36
11 13 14 15 15 16 16 17 17 18 19 20 20 21 22 23 23 24 24 25 25 26 27 28 29 27 26 26 26 26 26 26 27 28 30 31 33 33 32 32 33 33
8 11 13 14 14 15 16 16 16 17 18 18 18 19 19 19 19 20 20 21 21 22 23 25 26 24 22 22 23 23 23 23 24 26 28 30 32 33 33 33 32 32
7 8 9 11 12 13 13 13 14 14 15 16 16 17 17 18 18 18 19 19 20 21 22 24 25 24 23 23 24 24 24 24 25 26 28 30 33 34 34 34 34 34
6 6 6 8 9 9 10 10 11 11 12 13 14 15 15 16 17 19 19 20 21 22 23 25 27 26 25 26 26 26 26 26 26 27 28 30 32 33 33 33 33 33
6 5 4 6 7 7 7 7 8 8 9 10 11 12 13 14 15 16 17 17 18 19 20 21 24 24 22 22 23 23 23 24 24 25 28 29 30 30 31 32 32 33
6 4 3 3 5 6 6 6 6 6 7 8 9 10 11 12 12 13 14 14 14 15 16 17 19 20 18 18 18 18 19 20 21 23 25 26 26 26 27 28 30 30
Wind_Direction
227 228 229 231 231 232 233 232 232 230 230 229 229 231 232 233 233 230 228 229 229 229 231 231 231 231 231 231 231 232 233 234 235 236 235 236 238 238 238 239 238 238
228 229 230 231 232 233 233 233 233 231 231 231 232 234 235 236 235 232 231 231 229 230 231 231 231 231 231 231 230 231 232 233 235 235 235 236 237 238 239 239 239 240
229 229 230 230 232 233 234 234 233 232 233 234 234 235 236 236 235 234 233 232 231 232 232 231 232 232 231 231 230 230 232 233 234 234 234 236 237 237 239 239 240 240
230 230 230 231 232 233 234 233 232 232 233 234 235 236 236 235 234 234 234 233 232 233 232 231 232 231 231 231 230 231 232 233 235 234 233 237 237 237 239 239 239 240
231 231 231 232 232 233 233 232 232 232 233 234 236 236 235 234 233 233 233 233 232 233 233 232 232 231 231 231 229 230 232 233 234 233 233 236 238 237 239 238 239 240
233 233 232 233 233 233 232 232 232 233 233 235 236 236 235 234 233 233 232 232 232 232 232 232 232 232 231 230 229 230 232 233 233 232 232 236 238 238 238 238 237 239
233 233 233 233 233 233 232 233 234 234 235 236 236 236 235 234 234 233 233 233 232 232 232 232 232 232 231 229 229 230 232 232 233 232 232 236 238 238 238 238 237 239
234 234 234 233 233 232 232 233 234 235 236 236 236 236 235 234 235 235 234 233 232 233 233 233 233 233 232 229 229 231 232 232 232 232 232 235 237 238 238 238 237 239
237 236 235 234 232 232 232 233 234 235 236 236 236 237 236 235 236 236 235 233 233 233 233 233 233 233 232 230 230 231 231 232 232 231 232 234 235 238 239 237 236 238
240 238 236 234 233 233 233 234 235 235 235 235 236 237 236 236 236 236 235 234 233 234 234 233 233 233 232 231 232 232 232 232 233 232 232 234 235 237 238 237 236 237
243 240 238 236 235 235 235 236 236 235 235 235 236 236 236 237 237 236 235 235 234 235 234 234 234 233 232 232 233 233 233 234 234 233 233 234 236 238 238 237 236 237
246 243 241 240 239 238 238 238 237 236 236 236 236 237 237 237 237 237 236 236 237 237 236 236 235 234 233 234 234 234 234 234 234 234 235 236 237 238 239 238 237 238
249 248 247 246 245 244 242 241 239 238 237 237 237 237 236 237 237 238 239 239 239 239 238 238 237 235 235 235 235 234 234 234 234 235 236 237 238 239 240 240 239 240
255 255 255 254 253 251 248 245 242 241 240 239 238 237 237 238 239 240 240 241 241 241 240 240 238 236 236 235 235 234 233 234 235 235 236 237 239 240 241 241 242 242
262 263 262 261 260 256 253 249 245 243 241 239 238 237 238 239 240 240 240 241 241 241 241 241 239 238 238 237 236 234 234 234 235 236 236 238 239 241 242 242 243 243
269 270 269 267 264 260 256 252 248 244 241 239 237 237 238 238 238 238 238 239 240 241 241 240 240 240 241 241 239 237 236 235 235 236 237 238 239 241 243 244 244 245
269 271 273 271 267 262 258 254 249 246 243 240 239 238 238 238 237 236 237 238 239 240 240 241 241 243 243 242 241 240 239 237 236 238 238 238 240 241 243 245 246 246
260 262 266 267 266 262 258 255 251 248 244 242 241 240 239 237 236 237 238 239 239 239 240 242 244 245 245 244 243 242 241 240 239 239 240 240 241 242 245 247 247 248
252 250 252 256 259 259 258 255 251 248 246 245 244 243 242 240 239 240 240 239 239 239 241 243 245 247 246 245 245 244 244 243 242 242 242 243 244 245 246 247 248 249
257 252 250 250 251 253 255 254 252 252 251 250 248 246 244 242 241 241 241 240 240 241 243 246 248 249 248 248 248 249 248 248 248 247 247 247 248 248 248 248 248 249
269 265 260 256 253 250 250 249 251 253 254 253 251 249 247 245 244 243 243 243 242 243 245 247 249 250 250 250 250 250 250 248 247 247 248 249 249 249 248 248 248 249
290 281 275 272 265 257 252 248 248 251 253 254 253 251 250 248 247 247 247 246 245 245 245 248 249 250 250 250 249 249 249 249 249 251 253 254 255 254 253 253 254 255
315 302 295 290 282 274 267 263 261 260 260 260 259 256 253 251 249 249 249 250 249 248 249 252 253 252 252 252 252 252 252 253 253 255 257 258 258 258 259 259 259 258
329 317 310 307 301 295 290 286 284 280 275 272 269 267 264 261 259 256 255 254 254 253 255 257 258 258 256 255 254 253 254 255 256 257 258 258 259 260 260 260 260 260
329 320 309 305 304 305 301 295 291 288 284 281 278 276 275 272 270 269 267 266 264 264 265 265 267 268 267 264 263 261 260 259 258 258 258 258 259 260 261 261 260 260
339 345 343 326 313 310 304 295 291 287 285 285 283 282 279 277 276 276 277 277 276 277 277 276 278 281 281 279 277 274 270 266 260 257 258 259 261 263 264 265 264 263